• In Hungary
  • List of Countries
  • For 7 days
  • Water Temperature
  • Satellite Maps
  • Weather Map
  • News
  • Weather Widgets
  • user-avatar
    Login

    Hourly Weather Przyruda

    Today, 24 October, Tuesday

    Time Temperature Precipitation Wind Pressure Humidity
    00:00 +7°C° 0 mm 2 mps 760 mmHg 92%
    01:00 +6°C° 0 mm 2 mps 760 mmHg 92%
    02:00 +6°C° 0 mm 2 mps 761 mmHg 91%
    03:00 +6°C° 0 mm 2 mps 761 mmHg 90%
    04:00 +6°C° 0 mm 2 mps 761 mmHg 89%
    05:00 +6°C° 0 mm 2 mps 762 mmHg 89%
    06:00 +6°C° 0 mm 2 mps 762 mmHg 88%
    07:00 +5°C° 0 mm 2 mps 763 mmHg 87%
    08:00 +6°C° 0 mm 2 mps 763 mmHg 83%
    09:00 +7°C° 0 mm 2 mps 763 mmHg 79%
    10:00 +8°C° 0 mm 2 mps 764 mmHg 74%
    11:00 +8°C° 0 mm 2 mps 764 mmHg 71%
    12:00 +9°C° 0 mm 2 mps 764 mmHg 68%
    13:00 +10°C° 0 mm 2 mps 764 mmHg 65%
    14:00 +10°C° 0 mm 2 mps 764 mmHg 68%
    15:00 +9°C° 0 mm 2 mps 764 mmHg 70%
    16:00 +9°C° 0 mm 2 mps 764 mmHg 72%
    17:00 +8°C° 0 mm 2 mps 764 mmHg 75%
    18:00 +8°C° 0 mm 2 mps 764 mmHg 77%
    19:00 +7°C° 0 mm 3 mps 765 mmHg 80%
    20:00 +7°C° 0 mm 3 mps 765 mmHg 80%
    21:00 +7°C° 0 mm 3 mps 764 mmHg 80%
    22:00 +5°C° 0 mm 4 mps 764 mmHg 80%
    23:00 +5°C° 0 mm 4 mps 764 mmHg 81%

    Tomorrow, 25 October, Wednesday

    Time Temperature Precipitation Wind Pressure Humidity
    00:00 +5°C° 0 mm 4 mps 764 mmHg 82%
    01:00 +5°C° 0 mm 4 mps 764 mmHg 84%
    02:00 +5°C° 0 mm 4 mps 764 mmHg 84%
    03:00 +5°C° 0 mm 4 mps 763 mmHg 85%
    04:00 +5°C° 0 mm 4 mps 763 mmHg 85%
    05:00 +5°C° 0 mm 5 mps 763 mmHg 84%
    06:00 +5°C° 0 mm 5 mps 762 mmHg 83%
    07:00 +4°C° 0 mm 6 mps 762 mmHg 82%
    08:00 +4°C° 0.9 mm 6 mps 762 mmHg 81%
    09:00 +5°C° 0.9 mm 6 mps 761 mmHg 81%
    10:00 +5°C° 0.9 mm 7 mps 761 mmHg 81%
    11:00 +6°C° 1.8 mm 7 mps 761 mmHg 83%
    12:00 +7°C° 1.8 mm 6 mps 760 mmHg 85%
    13:00 +7°C° 1.8 mm 6 mps 760 mmHg 87%
    14:00 +8°C° 0.3 mm 6 mps 759 mmHg 88%
    15:00 +9°C° 0.3 mm 6 mps 759 mmHg 90%
    16:00 +10°C° 0.3 mm 5 mps 759 mmHg 91%
    17:00 +12°C° 0.1 mm 5 mps 759 mmHg 91%
    18:00 +12°C° 0.1 mm 5 mps 759 mmHg 90%
    19:00 +13°C° 0.1 mm 6 mps 759 mmHg 90%
    20:00 +13°C° 0.1 mm 5 mps 759 mmHg 91%
    21:00 +12°C° 0.1 mm 5 mps 760 mmHg 91%
    22:00 +12°C° 0.1 mm 5 mps 760 mmHg 92%
    23:00 +11°C° 0 mm 4 mps 760 mmHg 93%

    Day after tomorrow, 26 October, Thursday

    Time Temperature Precipitation Wind Pressure Humidity
    00:00 +11°C° 0 mm 4 mps 760 mmHg 94%
    01:00 +10°C° 0 mm 3 mps 761 mmHg 94%
    02:00 +10°C° 0 mm 3 mps 761 mmHg 95%
    03:00 +10°C° 0 mm 3 mps 761 mmHg 95%
    04:00 +9°C° 0 mm 3 mps 761 mmHg 96%
    05:00 +9°C° 0 mm 3 mps 761 mmHg 96%
    06:00 +9°C° 0 mm 3 mps 761 mmHg 96%
    07:00 +8°C° 0 mm 4 mps 761 mmHg 96%
    08:00 +10°C° 0 mm 4 mps 761 mmHg 92%
    09:00 +11°C° 0 mm 4 mps 761 mmHg 89%
    10:00 +12°C° 0 mm 5 mps 761 mmHg 85%
    11:00 +12°C° 0 mm 5 mps 761 mmHg 83%
    12:00 +12°C° 0 mm 5 mps 760 mmHg 80%
    13:00 +13°C° 0 mm 5 mps 760 mmHg 78%
    14:00 +13°C° 0 mm 5 mps 760 mmHg 79%
    15:00 +12°C° 0 mm 4 mps 760 mmHg 80%
    16:00 +12°C° 0 mm 4 mps 759 mmHg 82%
    17:00 +12°C° 0 mm 4 mps 759 mmHg 85%
    18:00 +11°C° 0 mm 3 mps 759 mmHg 88%
    19:00 +11°C° 0 mm 3 mps 758 mmHg 91%
    20:00 +11°C° 0 mm 3 mps 758 mmHg 92%
    21:00 +11°C° 0 mm 3 mps 758 mmHg 92%
    22:00 +11°C° 0 mm 3 mps 758 mmHg 93%
    23:00 +11°C° 0.2 mm 3 mps 757 mmHg 93%

    27 October, Friday

    Time Temperature Precipitation Wind Pressure Humidity
    00:00 +11°C° 0.2 mm 3 mps 757 mmHg 92%
    01:00 +11°C° 0.2 mm 3 mps 756 mmHg 92%
    02:00 +11°C° 0.1 mm 4 mps 756 mmHg 92%
    03:00 +11°C° 0.1 mm 4 mps 755 mmHg 93%
    04:00 +11°C° 0.1 mm 4 mps 755 mmHg 93%
    05:00 +10°C° 0.1 mm 4 mps 755 mmHg 93%
    06:00 +10°C° 0.1 mm 4 mps 754 mmHg 92%
    07:00 +10°C° 0.1 mm 4 mps 754 mmHg 91%
    08:00 +9°C° 0 mm 5 mps 754 mmHg 86%
    09:00 +10°C° 0 mm 5 mps 754 mmHg 81%
    10:00 +10°C° 0 mm 6 mps 753 mmHg 76%
    11:00 +11°C° 0.1 mm 6 mps 753 mmHg 75%
    12:00 +11°C° 0.1 mm 6 mps 753 mmHg 73%
    13:00 +11°C° 0.1 mm 6 mps 752 mmHg 71%
    14:00 +10°C° 0.1 mm 6 mps 752 mmHg 73%
    15:00 +10°C° 0.1 mm 5 mps 752 mmHg 75%
    16:00 +9°C° 0.1 mm 5 mps 751 mmHg 76%
    17:00 +9°C° 0.1 mm 5 mps 751 mmHg 78%
    18:00 +8°C° 0.1 mm 5 mps 751 mmHg 81%
    19:00 +8°C° 0.1 mm 5 mps 751 mmHg 83%
    20:00 +8°C° 0 mm 5 mps 750 mmHg 84%
    21:00 +7°C° 0 mm 5 mps 750 mmHg 85%
    22:00 +7°C° 0 mm 6 mps 750 mmHg 86%
    23:00 +7°C° 0.2 mm 6 mps 750 mmHg 86%

    28 October, Saturday

    Time Temperature Precipitation Wind Pressure Humidity
    00:00 +7°C° 0.2 mm 6 mps 750 mmHg 87%
    01:00 +8°C° 0.2 mm 7 mps 750 mmHg 87%
    02:00 +7°C° 0.1 mm 6 mps 750 mmHg 86%
    03:00 +6°C° 0.1 mm 5 mps 751 mmHg 85%
    04:00 +6°C° 0.1 mm 5 mps 751 mmHg 85%
    05:00 +6°C° 0.1 mm 5 mps 751 mmHg 85%
    06:00 +6°C° 0.1 mm 5 mps 751 mmHg 85%
    07:00 +6°C° 0.1 mm 5 mps 752 mmHg 85%
    08:00 +7°C° 0 mm 5 mps 751 mmHg 82%
    09:00 +7°C° 0 mm 5 mps 751 mmHg 78%
    10:00 +8°C° 0 mm 6 mps 751 mmHg 75%
    11:00 +8°C° 0.2 mm 6 mps 751 mmHg 74%
    12:00 +8°C° 0.2 mm 6 mps 750 mmHg 73%
    13:00 +9°C° 0.2 mm 6 mps 750 mmHg 72%
    14:00 +8°C° 0.1 mm 6 mps 749 mmHg 74%
    15:00 +8°C° 0.1 mm 5 mps 749 mmHg 76%
    16:00 +8°C° 0.1 mm 5 mps 749 mmHg 78%
    17:00 +8°C° 0.1 mm 5 mps 748 mmHg 81%
    18:00 +7°C° 0.1 mm 5 mps 748 mmHg 84%
    19:00 +7°C° 0.1 mm 5 mps 748 mmHg 87%
    20:00 +7°C° 0.4 mm 5 mps 747 mmHg 88%
    21:00 +7°C° 0.4 mm 5 mps 747 mmHg 89%
    22:00 +7°C° 0.4 mm 5 mps 747 mmHg 90%
    23:00 +7°C° 0.8 mm 5 mps 746 mmHg 90%

    29 October, Sunday

    Time Temperature Precipitation Wind Pressure Humidity
    00:00 +7°C° 0.8 mm 5 mps 746 mmHg 90%
    01:00 +7°C° 0.8 mm 5 mps 746 mmHg 90%
    02:00 +7°C° 0.4 mm 6 mps 746 mmHg 88%
    03:00 +7°C° 0.4 mm 6 mps 746 mmHg 87%
    04:00 +5°C° 0.4 mm 6 mps 746 mmHg 85%
    05:00 +5°C° 0 mm 6 mps 747 mmHg 84%
    06:00 +5°C° 0 mm 6 mps 748 mmHg 84%
    07:00 +5°C° 0 mm 5 mps 748 mmHg 83%
    08:00 +5°C° 0 mm 6 mps 749 mmHg 79%
    09:00 +7°C° 0 mm 6 mps 749 mmHg 74%
    10:00 +8°C° 0 mm 6 mps 750 mmHg 70%
    11:00 +8°C° 0 mm 6 mps 750 mmHg 68%
    12:00 +8°C° 0 mm 6 mps 750 mmHg 67%
    13:00 +8°C° 0 mm 5 mps 750 mmHg 65%
    14:00 +8°C° 0 mm 5 mps 750 mmHg 66%
    15:00 +7°C° 0 mm 4 mps 750 mmHg 67%
    16:00 +8°C° 0 mm 3 mps 750 mmHg 68%
    17:00 +7°C° 0 mm 3 mps 750 mmHg 71%
    18:00 +6°C° 0 mm 2 mps 750 mmHg 74%
    19:00 +6°C° 0 mm 2 mps 749 mmHg 77%
    20:00 +5°C° 0 mm 3 mps 749 mmHg 80%
    21:00 +5°C° 0 mm 3 mps 749 mmHg 82%
    22:00 +5°C° 0 mm 3 mps 748 mmHg 85%
    23:00 +5°C° 0.2 mm 4 mps 747 mmHg 86%

    30 October, Monday

    Time Temperature Precipitation Wind Pressure Humidity
    00:00 +6°C° 0.2 mm 4 mps 747 mmHg 88%
    01:00 +6°C° 0.2 mm 5 mps 746 mmHg 90%
    02:00 +7°C° 0.3 mm 5 mps 745 mmHg 91%
    03:00 +7°C° 0.3 mm 5 mps 744 mmHg 92%
    04:00 +8°C° 0.3 mm 5 mps 743 mmHg 93%
    05:00 +8°C° 0.6 mm 6 mps 743 mmHg 91%
    06:00 +8°C° 0.6 mm 6 mps 743 mmHg 90%
    07:00 +9°C° 0.6 mm 7 mps 742 mmHg 88%
    08:00 +9°C° 0.2 mm 7 mps 742 mmHg 83%
    09:00 +9°C° 0.2 mm 8 mps 742 mmHg 78%
    10:00 +9°C° 0.2 mm 8 mps 742 mmHg 72%
    11:00 +8°C° 0.1 mm 9 mps 742 mmHg 69%
    12:00 +8°C° 0.1 mm 9 mps 742 mmHg 67%
    13:00 +10°C° 0.1 mm 9 mps 742 mmHg 64%
    14:00 +8°C° 0.2 mm 9 mps 742 mmHg 67%
    15:00 +8°C° 0.2 mm 9 mps 742 mmHg 70%
    16:00 +7°C° 0.2 mm 9 mps 742 mmHg 73%
    17:00 +7°C° 0.2 mm 8 mps 741 mmHg 74%
    18:00 +6°C° 0.2 mm 8 mps 741 mmHg 74%
    19:00 +6°C° 0.2 mm 8 mps 741 mmHg 74%
    20:00 +6°C° 0 mm 8 mps 741 mmHg 74%
    21:00 +6°C° 0 mm 8 mps 741 mmHg 74%
    22:00 +5°C° 0 mm 9 mps 741 mmHg 73%
    23:00 +5°C° 0.1 mm 9 mps 741 mmHg 73%
    Show more